Location: Recife
(8.0585°S, 34.8848°W)
Time: 06:54:40
(UTC-03:00)

Vanguard 3 - Pass Details

Date: 14 April 2026
Orbit: 507 x 3205 km, 33.4° (Epoch: 13 May)

Event Time Altitude Azimuth Distance (km) Brightness Sun altitude
Rises 09:35:47 0° 279° (W) 5,527 11.2 58.7°
Reaches altitude 10° 09:39:11 10° 273° (W) 4,848 11.0 59.4°
Maximum altitude 09:53:30 46° 203° (SSW) 3,645 10.8 62.2°
Drops below altitude 10° 10:12:02 10° 135° (SE) 6,088 11.7 65.6°
Sets 10:17:03 0° 128° (SE) 6,984 11.9 66.5°
